Wind_Speed
22 21 20 19 18 16 14 14 13 13 12 12 11 10 10 10 10 10 10 9 8 8 8 7 7 6 6 7 7 6 5 4 5 3 3 3 3 3 4 4 4 4
22 21 21 20 19 18 16 15 14 13 13 13 11 10 10 10 11 11 11 10 8 8 8 7 7 7 6 6 6 6 6 5 5 3 3 2 3 3 4 4 4 5
22 22 22 21 19 18 17 16 16 15 14 13 13 12 10 11 11 12 11 11 10 9 8 8 8 7 7 6 5 5 5 4 5 6 5 4 4 4 4 4 4 4
21 21 22 21 19 18 17 17 17 16 15 14 14 13 12 11 12 12 12 12 11 11 10 10 9 8 8 7 6 6 5 5 5 7 7 6 4 5 4 4 4 4
20 21 21 21 20 19 18 18 17 17 17 16 15 14 14 13 12 12 13 13 12 12 11 11 10 10 9 9 8 7 7 6 6 6 7 5 4 5 5 5 5 5
21 20 21 21 21 21 20 19 18 18 17 17 16 16 15 15 15 14 14 13 13 12 11 11 11 10 10 10 9 9 8 8 7 7 7 6 6 7 6 5 6 7
22 21 21 21 21 22 21 20 20 19 18 17 17 17 16 16 16 16 15 15 14 13 12 11 12 12 11 11 11 10 9 9 9 8 8 7 8 8 6 5 7 8
23 22 21 21 21 22 22 22 21 20 20 19 18 18 18 17 17 17 16 16 15 15 14 14 14 14 13 12 12 12 11 10 9 10 10 8 8 9 8 8 8 9
24 23 23 22 22 22 22 22 22 22 21 21 20 19 19 19 18 17 17 17 17 17 17 16 16 16 15 14 14 14 13 12 11 11 11 10 10 10 10 9 10 10
25 25 24 23 23 23 23 23 23 22 22 22 21 20 19 19 19 18 18 19 19 19 19 18 18 18 16 16 15 15 15 14 13 13 12 12 11 11 10 11 11 11
26 25 25 25 24 24 23 23 23 22 22 22 22 21 20 20 20 20 20 21 21 21 21 20 19 19 18 17 16 16 16 16 15 15 15 14 13 13 12 13 12 12
26 26 26 26 25 25 24 24 23 23 23 23 23 22 22 21 21 21 21 22 23 23 22 22 21 21 20 20 19 17 17 17 16 16 16 15 15 14 14 14 14 14
26 26 26 26 26 26 25 24 24 24 23 23 23 23 23 23 22 21 22 22 24 24 23 23 23 23 22 22 21 20 19 18 17 17 16 16 16 15 15 15 14 14
24 25 26 26 26 27 26 25 24 24 24 23 23 23 23 23 23 22 22 22 23 24 24 23 23 24 24 24 24 23 21 20 19 19 18 17 16 16 15 15 15 15
22 23 25 25 26 27 28 27 26 25 25 24 23 23 22 22 23 23 23 23 22 23 23 23 23 24 25 25 25 24 23 22 21 21 20 19 18 17 17 17 17 17
20 23 23 24 27 28 28 28 28 26 26 26 25 25 24 23 23 23 23 23 23 23 23 23 23 23 24 26 26 26 25 23 22 21 21 21 20 20 19 18 18 18
21 24 24 24 26 29 30 30 29 27 26 26 26 26 26 25 24 24 24 23 23 23 23 23 23 23 25 27 28 27 26 25 23 22 22 22 22 22 22 21 20 20
25 27 28 26 26 28 30 32 31 28 27 27 27 27 27 27 26 25 25 25 24 24 24 24 24 24 25 27 29 29 28 26 25 23 22 22 23 23 23 23 23 22
26 29 30 29 28 28 29 30 30 28 29 29 28 27 27 27 27 27 26 26 26 26 25 25 24 25 26 28 30 31 30 28 28 27 25 24 23 23 23 24 25 25
25 27 28 29 29 29 29 29 28 28 28 27 27 27 28 28 28 27 27 28 28 28 28 27 26 26 27 29 31 32 31 30 30 31 30 29 27 26 25 24 25 26
21 21 25 28 29 28 29 28 27 28 27 25 25 26 27 28 28 27 27 28 29 29 29 29 29 28 29 30 31 33 33 32 32 32 34 34 34 33 32 30 29 28
21 19 19 22 24 23 24 25 25 26 25 24 24 24 25 27 27 27 27 27 28 29 30 30 29 29 31 33 34 34 34 33 32 33 34 36 38 38 38 38 37 35
22 20 18 18 19 20 21 22 22 22 22 22 22 22 23 24 24 24 25 26 26 28 29 30 29 29 31 33 35 35 34 33 32 32 34 36 39 40 41 42 42 42
20 19 18 18 18 18 20 21 21 21 21 22 20 19 20 21 21 21 22 23 24 26 28 29 29 30 31 33 34 34 33 33 32 32 33 35 37 40 41 43 44 44
20 19 17 16 15 15 17 20 21 21 21 21 20 19 20 19 19 21 22 22 22 24 26 28 28 28 30 33 34 33 32 32 31 32 33 35 36 38 40 41 43 44
13 16 18 18 18 18 18 18 19 19 20 20 21 22 22 19 18 20 21 22 22 22 24 26 27 27 29 31 33 34 34 32 31 32 33 35 36 37 38 39 41 42
Wind_Direction
209 208 205 207 206 202 201 203 204 201 199 201 201 201 201 199 194 191 199 211 207 201 206 207 204 206 207 202 190 193 207 178 165 217 237 194 192 216 232 222 216 224
210 211 209 206 206 205 202 201 204 205 206 204 201 202 206 205 203 199 199 206 207 205 211 209 206 210 209 208 208 207 214 191 169 210 255 209 187 205 228 229 226 225
209 213 214 209 205 206 204 202 204 205 208 209 204 202 203 205 208 206 203 204 201 203 214 216 211 214 214 213 220 222 225 221 191 198 227 232 206 203 223 226 224 231
208 212 215 211 205 206 205 203 206 206 206 209 209 207 204 204 211 213 211 209 203 200 210 218 214 214 218 218 222 227 227 236 222 208 224 237 213 203 217 220 215 224
209 209 213 210 204 204 206 205 207 208 207 208 209 210 208 206 207 211 215 215 212 208 209 217 219 217 222 223 219 224 228 236 241 232 235 241 228 217 214 219 223 221
212 209 210 210 205 204 206 206 207 208 209 210 209 209 211 211 207 206 211 213 213 213 211 217 223 219 223 230 226 223 222 227 241 251 246 239 239 231 211 216 236 231
212 211 210 210 207 206 207 207 208 208 208 209 210 209 210 213 213 209 209 210 209 211 210 214 223 220 217 226 233 231 224 220 226 236 238 234 240 240 221 221 243 242
207 208 211 210 207 207 209 208 209 210 208 207 210 211 209 211 215 213 211 212 210 211 210 209 219 224 219 218 228 234 231 226 227 235 239 234 234 241 233 225 236 243
203 203 208 209 205 206 209 210 211 211 210 208 208 211 212 211 213 213 214 216 214 215 216 214 218 226 224 218 222 230 230 225 224 233 242 242 238 243 243 236 237 242
200 200 203 205 203 205 207 209 211 211 212 212 209 210 213 214 213 212 214 217 217 219 222 222 222 227 229 225 224 229 231 229 225 225 230 236 237 237 239 240 240 242
199 200 201 203 203 204 207 208 209 210 211 213 212 211 211 214 216 214 213 216 220 222 225 226 226 228 230 229 226 228 233 232 231 232 231 232 236 236 235 237 238 239
199 201 202 204 204 204 206 208 207 208 209 211 213 212 211 212 215 216 215 218 224 228 228 229 231 232 231 230 226 226 231 232 231 235 237 237 238 239 237 237 238 238
201 204 205 205 207 206 207 208 208 208 208 209 211 212 211 211 213 216 217 220 227 232 230 229 233 234 234 235 230 224 225 229 230 231 235 238 239 237 236 237 239 241
205 206 207 206 208 208 208 208 209 209 209 209 210 211 212 213 213 215 216 218 225 232 232 230 232 234 235 237 237 232 226 225 228 230 230 232 235 235 233 234 237 240
209 209 208 207 208 209 209 209 209 210 210 209 210 211 212 213 214 215 217 218 220 227 231 229 227 231 234 236 239 238 233 228 229 232 232 229 231 234 234 235 236 238
211 211 209 208 208 209 209 210 210 211 212 212 211 212 213 213 215 215 217 219 220 221 226 227 226 227 232 237 240 240 239 234 229 231 233 231 230 232 234 235 237 239
212 210 208 208 211 210 210 213 213 211 212 214 213 213 214 214 215 216 216 218 221 222 223 226 228 229 232 239 243 244 242 239 234 231 232 233 233 234 235 236 238 239
220 217 213 210 209 210 214 220 221 216 211 212 214 214 215 215 215 216 218 218 221 224 225 227 229 230 232 239 245 247 244 241 238 234 233 235 237 238 239 240 241 241
233 231 228 221 213 211 216 224 227 223 216 212 213 213 214 216 217 218 220 221 222 224 226 228 229 231 233 237 243 248 248 244 241 237 235 236 238 240 241 242 244 244
244 240 236 230 221 214 218 225 229 229 224 215 212 214 214 215 218 219 221 224 226 227 227 228 229 230 234 238 243 247 249 247 244 241 240 239 239 240 241 242 245 247
248 248 242 238 232 221 219 223 227 229 228 218 212 214 215 216 218 219 221 225 229 230 230 230 230 229 230 234 239 245 248 247 245 242 242 242 242 242 242 242 243 245
247 253 248 244 243 236 230 230 230 230 230 225 218 216 217 219 222 223 223 225 229 233 233 232 231 231 231 233 236 240 245 248 247 245 244 243 243 244 245 246 246 246
244 249 251 247 245 244 242 242 241 239 237 232 224 219 219 219 221 224 225 225 227 230 233 233 232 232 234 236 238 240 243 245 247 246 246 244 244 244 246 247 249 250
243 246 251 250 246 246 246 244 241 240 241 238 232 228 227 224 223 224 225 225 225 227 230 233 233 234 235 238 240 242 243 243 244 245 246 246 246 246 246 248 249 251
248 246 248 248 245 244 244 242 238 235 238 242 240 237 234 230 227 226 225 226 227 228 232 234 234 235 237 240 242 242 242 242 244 245 246 247 247 248 248 249 251 252
262 256 256 257 255 250 247 248 246 241 238 241 244 242 238 234 233 232 229 229 229 229 233 234 234 235 238 241 243 242 241 240 241 244 246 247 248 249 249 251 252 254
Height
1572 1574 1576 1578 1580 1583 1585 1586 1588 1589 1590 1592 1593 1594 1595 1596 1597 1598 1600 1600 1600 1601 1602 1603 1603 1604 1604 1605 1605 1605 1606 1606 1607 1608 1608 1609 1609 1610 1611 1612 1612 1613
1570 1572 1574 1576 1578 1581 1583 1585 1587 1588 1589 1591 1592 1594 1595 1595 1596 1597 1598 1599 1600 1601 1601 1602 1603 1603 1604 1604 1604 1605 1605 1606 1607 1608 1609 1609 1609 1610 1611 1612 1612 1612
1568 1570 1572 1574 1577 1579 1581 1583 1585 1586 1588 1589 1591 1592 1594 1595 1595 1596 1597 1598 1599 1600 1601 1601 1602 1602 1603 1603 1604 1604 1605 1606 1607 1608 1608 1609 1609 1610 1611 1611 1612 1612
1566 1568 1570 1573 1575 1577 1580 1582 1583 1585 1586 1588 1589 1591 1592 1594 1594 1595 1596 1597 1598 1599 1600 1601 1601 1602 1603 1603 1604 1604 1605 1606 1606 1607 1608 1608 1609 1610 1610 1611 1612 1612
1564 1566 1568 1571 1573 1576 1578 1580 1581 1583 1584 1586 1588 1589 1590 1592 1593 1594 1595 1596 1597 1598 1599 1600 1601 1601 1602 1602 1603 1604 1604 1605 1606 1607 1607 1608 1609 1609 1610 1610 1611 1612
1561 1564 1566 1568 1571 1573 1576 1577 1579 1581 1583 1585 1586 1588 1589 1590 1591 1593 1594 1594 1596 1597 1598 1599 1600 1601 1601 1602 1602 1603 1604 1605 1606 1606 1607 1607 1608 1608 1609 1610 1610 1611
1559 1561 1563 1566 1569 1571 1573 1575 1577 1579 1581 1583 1584 1586 1587 1588 1589 1591 1592 1593 1594 1596 1597 1598 1599 1600 1601 1601 1601 1602 1603 1604 1605 1605 1606 1607 1607 1608 1608 1609 1610 1610
1556 1558 1561 1563 1566 1569 1571 1573 1575 1577 1579 1581 1582 1584 1585 1587 1588 1589 1590 1591 1592 1594 1595 1597 1597 1598 1599 1600 1601 1601 1601 1603 1604 1604 1604 1605 1606 1607 1607 1608 1609 1609
1553 1555 1558 1560 1563 1566 1568 1571 1573 1574 1576 1578 1580 1582 1583 1585 1586 1587 1588 1589 1591 1592 1592 1594 1595 1596 1597 1598 1599 1599 1600 1601 1603 1603 1603 1604 1605 1606 1606 1607 1607 1608
1550 1552 1555 1557 1560 1563 1565 1568 1570 1572 1574 1575 1577 1580 1581 1582 1584 1585 1587 1587 1588 1589 1590 1591 1593 1593 1595 1596 1597 1597 1598 1599 1600 1601 1602 1603 1603 1604 1605 1606 1606 1607
1547 1550 1552 1554 1557 1560 1562 1565 1567 1570 1571 1573 1575 1577 1579 1580 1581 1583 1584 1585 1586 1587 1588 1589 1590 1591 1592 1594 1595 1596 1596 1597 1598 1599 1600 1601 1602 1602 1603 1604 1604 1605
1544 1547 1549 1552 1554 1557 1559 1562 1564 1566 1568 1570 1572 1574 1576 1578 1579 1580 1581 1582 1583 1584 1586 1587 1588 1589 1590 1591 1593 1594 1594 1595 1596 1597 1598 1598 1599 1600 1601 1602 1602 1603
1542 1544 1546 1549 1551 1554 1556 1558 1560 1563 1565 1566 1568 1570 1572 1574 1576 1577 1578 1579 1580 1581 1583 1584 1585 1586 1587 1588 1589 1591 1592 1593 1594 1595 1596 1596 1597 1598 1599 1600 1601 1601
1539 1542 1544 1546 1548 1550 1553 1555 1557 1560 1561 1563 1565 1567 1568 1570 1572 1574 1575 1576 1578 1578 1580 1581 1582 1583 1584 1585 1586 1588 1590 1591 1592 1593 1594 1595 1595 1596 1597 1598 1599 1600
1537 1539 1540 1543 1545 1547 1549 1551 1553 1556 1558 1560 1562 1563 1565 1567 1569 1571 1572 1573 1575 1576 1577 1579 1580 1580 1581 1582 1584 1585 1587 1588 1589 1590 1591 1592 1593 1594 1595 1596 1596 1597
1535 1537 1537 1539 1541 1543 1545 1547 1549 1552 1554 1556 1558 1560 1562 1564 1565 1567 1569 1570 1572 1573 1574 1575 1577 1578 1578 1579 1581 1582 1584 1586 1587 1588 1589 1590 1591 1592 1592 1593 1594 1594
1533 1534 1534 1536 1537 1539 1541 1543 1545 1548 1550 1552 1554 1556 1558 1560 1562 1564 1565 1567 1569 1570 1571 1572 1574 1575 1576 1576 1578 1580 1582 1583 1584 1586 1587 1587 1588 1589 1589 1590 1591 1592
1531 1532 1532 1533 1534 1535 1537 1539 1541 1544 1546 1548 1550 1552 1554 1555 1557 1559 1561 1563 1565 1566 1567 1569 1570 1572 1573 1573 1574 1576 1579 1580 1582 1583 1584 1585 1585 1586 1586 1587 1587 1588
1531 1531 1531 1531 1532 1533 1535 1536 1538 1540 1542 1544 1545 1547 1549 1551 1552 1555 1556 1558 1560 1562 1564 1565 1566 1568 1569 1570 1571 1572 1575 1577 1578 1580 1581 1582 1583 1583 1584 1584 1584 1584
1532 1532 1532 1532 1531 1532 1533 1534 1536 1537 1538 1540 1542 1543 1545 1546 1548 1550 1551 1553 1555 1557 1559 1561 1562 1564 1565 1566 1567 1568 1570 1572 1574 1576 1577 1578 1579 1580 1581 1581 1581 1581
1530 1532 1533 1532 1532 1532 1533 1533 1535 1536 1536 1538 1539 1540 1541 1542 1543 1545 1547 1548 1550 1552 1554 1556 1557 1559 1561 1562 1562 1563 1565 1567 1569 1570 1571 1573 1574 1575 1576 1577 1577 1578
1528 1530 1532 1533 1533 1534 1534 1535 1537 1536 1535 1536 1537 1538 1539 1539 1540 1542 1543 1544 1546 1547 1549 1551 1553 1555 1556 1557 1558 1559 1561 1563 1564 1565 1566 1567 1568 1569 1570 1571 1572 1573
1525 1527 1529 1530 1532 1534 1534 1535 1537 1537 1536 1536 1536 1536 1537 1537 1538 1539 1540 1541 1543 1544 1545 1546 1548 1550 1551 1553 1554 1556 1557 1558 1559 1560 1561 1561 1563 1563 1564 1566 1566 1567
1523 1525 1526 1527 1529 1530 1531 1531 1533 1534 1535 1536 1536 1536 1536 1536 1537 1537 1538 1539 1540 1541 1541 1542 1544 1546 1547 1548 1550 1552 1553 1554 1555 1556 1556 1557 1557 1558 1559 1560 1560 1562
1522 1523 1525 1526 1526 1527 1527 1528 1529 1530 1531 1533 1535 1536 1535 1535 1535 1535 1536 1536 1537 1538 1538 1539 1540 1542 1543 1544 1545 1547 1549 1550 1551 1552 1552 1552 1553 1553 1554 1554 1555 1556
1521 1522 1524 1524 1524 1524 1525 1526 1527 1527 1528 1530 1533 1534 1533 1532 1533 1533 1533 1533 1534 1535 1536 1536 1537 1538 1539 1540 1541 1542 1544 1546 1547 1548 1548 1549 1549 1549 1550 1550 1550 1551